UAL254 KSAT-KEWR

Flight info

Callsign UAL254
Flight time N/A
Altitude 35000
Route YODUH2 KLNGR DCT FUZ DCT GRAZN Q28 PXV DCT RINTE DCT KLYNE Q29 DORET J584 SLT FQM3
Aircraft B739/M-SDE2E3FGHIRWXY/LB1

Departure

Time N/A
Airport San Antonio International Airport (KSAT)

Arrival

Time 2026-04-26 15:43
Airport Newark Liberty International Airport (KEWR)
Time Latitude Longitude Altitude Speed Heading
2026-04-26 15:31 40.80532 -74.82869 10812 ft 351 kts 102°
2026-04-26 15:31 40.79864 -74.79786 10373 ft 348 kts 107°
2026-04-26 15:32 40.77850 -74.75408 10278 ft 329 kts 127°
2026-04-26 15:32 40.75703 -74.72621 10103 ft 316 kts 134°
2026-04-26 15:32 40.74119 -74.70737 9982 ft 305 kts 134°
2026-04-26 15:33 40.72577 -74.68913 9918 ft 292 kts 134°
2026-04-26 15:33 40.71042 -74.67088 9389 ft 296 kts 134°
2026-04-26 15:33 40.69517 -74.65266 9011 ft 295 kts 134°
2026-04-26 15:33 40.67977 -74.63422 8395 ft 297 kts 135°
2026-04-26 15:34 40.66483 -74.61633 7981 ft 291 kts 135°
2026-04-26 15:34 40.64991 -74.59848 7662 ft 283 kts 134°
2026-04-26 15:34 40.63551 -74.58123 7334 ft 276 kts 135°
2026-04-26 15:34 40.62148 -74.56442 7006 ft 270 kts 135°
2026-04-26 15:35 40.60779 -74.54802 6730 ft 269 kts 134°
2026-04-26 15:35 40.59394 -74.53142 6414 ft 269 kts 135°
2026-04-26 15:35 40.58012 -74.51487 6088 ft 268 kts 134°
2026-04-26 15:35 40.56858 -74.49590 5607 ft 266 kts 109°
2026-04-26 15:36 40.56311 -74.47292 5322 ft 263 kts 103°
2026-04-26 15:36 40.55802 -74.45009 4986 ft 263 kts 103°
2026-04-26 15:36 40.55270 -74.42708 4652 ft 262 kts 104°
2026-04-26 15:36 40.54725 -74.40423 4346 ft 260 kts 104°
2026-04-26 15:37 40.54173 -74.38169 4034 ft 255 kts 104°
2026-04-26 15:37 40.53635 -74.36006 3902 ft 240 kts 104°
2026-04-26 15:37 40.53129 -74.33983 3798 ft 224 kts 104°
2026-04-26 15:37 40.52667 -74.32147 3710 ft 205 kts 104°
2026-04-26 15:38 40.52239 -74.30442 3603 ft 186 kts 102°
2026-04-26 15:38 40.52241 -74.28895 3537 ft 160 kts 59°
2026-04-26 15:38 40.53017 -74.27899 3420 ft 164 kts 41°
2026-04-26 15:38 40.53841 -74.26850 3218 ft 164 kts 42°
2026-04-26 15:39 40.54760 -74.26009 2990 ft 156 kts 36°
2026-04-26 15:39 40.55665 -74.25256 2799 ft 152 kts 33°
2026-04-26 15:39 40.56598 -74.24583 2585 ft 154 kts 30°
2026-04-26 15:39 40.57233 -74.24159 2449 ft 156 kts 29°
2026-04-26 15:40 40.58547 -74.23309 2163 ft 160 kts 28°
2026-04-26 15:40 40.59543 -74.22673 1946 ft 157 kts 27°
2026-04-26 15:40 40.60531 -74.22042 1718 ft 156 kts 28°
2026-04-26 15:40 40.61489 -74.21430 1503 ft 147 kts 28°
2026-04-26 15:41 40.62377 -74.20863 1342 ft 136 kts 27°
2026-04-26 15:41 40.63191 -74.20340 1079 ft 129 kts 28°
2026-04-26 15:41 40.63975 -74.19819 919 ft 126 kts 28°
2026-04-26 15:41 40.64791 -74.19312 768 ft 131 kts 28°
2026-04-26 15:42 40.65635 -74.18770 595 ft 136 kts 28°
2026-04-26 15:42 40.66483 -74.18233 400 ft 133 kts 26°
2026-04-26 15:42 40.67299 -74.17710 228 ft 130 kts 26°
2026-04-26 15:42 40.68114 -74.17196 38 ft 129 kts 26°
2026-04-26 15:43 40.68842 -74.16735 19 ft 98 kts 26°
2026-04-26 15:43 40.69322 -74.16431 24 ft 55 kts 26°
2026-04-26 15:43 40.69568 -74.16403 20 ft 13 kts 301°
2026-04-26 15:44 40.69607 -74.16509 18 ft 13 kts 296°
2026-04-26 15:44 40.69681 -74.16714 19 ft 12 kts 290°
2026-04-26 15:44 40.69669 -74.16820 20 ft 12 kts 252°
2026-04-26 15:45 40.69552 -74.16947 18 ft 11 kts 205°
2026-04-26 15:45 40.69482 -74.16990 19 ft 11 kts 205°
2026-04-26 15:46 40.69289 -74.17113 17 ft 19 kts 207°
2026-04-26 15:46 40.69174 -74.17186 17 ft 18 kts 205°
2026-04-26 15:46 40.69064 -74.17256 16 ft 17 kts 206°
2026-04-26 15:46 40.69028 -74.17279 17 ft 17 kts 206°
2026-04-26 15:47 40.68854 -74.17389 19 ft 16 kts 206°
2026-04-26 15:47 40.68700 -74.17516 22 ft 10 kts 274°
2026-04-26 15:47 40.68741 -74.17587 23 ft 9 kts 306°
2026-04-26 15:48 40.68754 -74.17612 21 ft 0 kts 305°